Terminal Aerodrome Forecast
Issued by NWS Quad Cities IA IL

Home | Current Version | Previous Version | Text Only | Print | Product List | Glossary On
Versions: 1 2 3 4 5 6 7 8 9 10 11 12 13 14 15 16 17 18 19 20
000
FTUS43 KDVN 181100
TAFDBQ
TAF
KDBQ 181135Z 1812/1912 05009KT P6SM SCT100 BKN200
     FM181800 10012KT P6SM SCT080 BKN150
     FM190500 10010KT P6SM SCT060 BKN100=

USA.gov is the U.S. government's official web portal to all federal, state and local government web resources and services.